TimeMST,TemperatureF,Dew PointF,Humidity,Sea Level PressureIn,VisibilityMPH,Wind Direction,Wind SpeedMPH,Gust SpeedMPH,PrecipitationIn,Events,Conditions,WindDirDegrees,DateUTC
12:53 AM,30.0,27.0,88,30.01,10.0,ESE,9.2,-,N/A,,Clear,110,2012-11-17 07:53:00
1:53 AM,28.9,26.1,89,30.01,10.0,Calm,Calm,-,N/A,,Mostly Cloudy,0,2012-11-17 08:53:00
2:53 AM,26.1,24.1,92,30.02,10.0,ENE,4.6,-,N/A,,Clear,70,2012-11-17 09:53:00
3:53 AM,26.1,24.1,92,30.03,10.0,East,4.6,-,N/A,,Clear,100,2012-11-17 10:53:00
4:53 AM,26.1,24.1,92,30.04,10.0,SSE,3.5,-,N/A,,Clear,150,2012-11-17 11:53:00
5:53 AM,25.0,24.1,96,30.05,8.0,East,3.5,-,N/A,,Clear,100,2012-11-17 12:53:00
6:53 AM,23.0,21.9,96,30.06,10.0,SE,6.9,-,N/A,,Clear,140,2012-11-17 13:53:00
7:53 AM,21.9,21.0,96,30.07,10.0,SE,4.6,-,N/A,,Clear,130,2012-11-17 14:53:00
8:53 AM,24.1,23.0,96,30.07,10.0,ESE,4.6,-,N/A,,Clear,120,2012-11-17 15:53:00
9:53 AM,28.9,25.0,85,30.06,10.0,ESE,4.6,-,N/A,,Clear,110,2012-11-17 16:53:00
10:53 AM,33.1,28.0,82,30.05,10.0,ESE,8.1,-,N/A,,Clear,110,2012-11-17 17:53:00
11:53 AM,35.1,30.0,82,30.02,10.0,SE,6.9,-,N/A,,Clear,130,2012-11-17 18:53:00
12:53 PM,36.0,30.0,79,30.00,10.0,ESE,6.9,-,N/A,,Clear,110,2012-11-17 19:53:00
1:53 PM,36.0,30.0,79,29.99,10.0,ESE,4.6,-,N/A,,Clear,120,2012-11-17 20:53:00
2:53 PM,36.0,30.9,82,29.98,10.0,East,9.2,-,N/A,,Clear,90,2012-11-17 21:53:00
3:53 PM,35.1,30.0,82,29.96,10.0,East,13.8,-,N/A,,Clear,100,2012-11-17 22:53:00
4:53 PM,33.1,28.9,85,29.95,10.0,East,13.8,-,N/A,,Clear,100,2012-11-17 23:53:00
5:53 PM,32.0,28.0,85,29.94,10.0,ESE,13.8,-,N/A,,Clear,110,2012-11-18 00:53:00
6:53 PM,30.9,28.0,89,29.94,10.0,East,13.8,-,N/A,,Clear,100,2012-11-18 01:53:00
7:53 PM,30.9,28.0,89,29.92,10.0,East,15.0,-,N/A,,Clear,100,2012-11-18 02:53:00
8:53 PM,30.9,28.0,89,29.91,10.0,East,15.0,-,N/A,,Clear,100,2012-11-18 03:53:00
9:53 PM,30.9,28.0,89,29.89,10.0,East,16.1,-,N/A,,Clear,100,2012-11-18 04:53:00
10:53 PM,30.9,28.0,89,29.87,10.0,ESE,16.1,-,N/A,,Clear,110,2012-11-18 05:53:00
11:53 PM,30.9,28.0,89,29.84,10.0,ESE,17.3,-,N/A,,Clear,110,2012-11-18 06:53:00